Date String (YYYY-MM-DD hh:mm:ss) UTC,Instrument flags,Ambient pressure (hPa),Sample flow (lpm),Bypass flow (lpm),Sample temperature (°C),Ambient temperature (°C),ASC tube jacket temperature (°C),LED temperature (°C),Box temperature (°C),Sample RH (%),Span deviation,Mass concentration (μg/m³),Mass concentration (μg/m³),Mass concentration (μg/m³)
DateTimeUTC,F1_M11,P_M11,Q1_M11,Q2_M11,T1_M11,T2_M11,T3_M11,T4_M11,T5_M11,U1_M11,ZSPAN_M11,X0_M11,X2_M11,X1_M11
2021-12-24 08:00:00,,0808.8,5.00,0.00,24.6,23.8,00.0,33.6,26.4,21.8,0000.0,0000.18,0000.15,0000.14
2021-12-24 08:01:00,,0808.7,5.00,0.00,24.6,23.8,00.0,33.6,26.4,21.9,0000.0,0000.19,0000.15,0000.15
2021-12-24 08:02:00,,0808.7,5.00,0.00,24.7,23.8,00.0,33.6,26.4,22.0,0000.0,0000.20,0000.16,0000.14
2021-12-24 08:03:00,,0808.6,5.01,0.00,24.7,23.8,00.0,33.7,26.4,22.0,0000.0,0000.20,0000.16,0000.14
2021-12-24 08:04:00,,0808.7,5.00,0.00,24.7,23.8,00.0,33.7,26.4,21.9,0000.0,0000.21,0000.16,0000.14
2021-12-24 08:05:00,,0808.7,4.99,0.00,24.7,23.8,00.0,33.7,26.4,22.0,0000.0,0000.23,0000.17,0000.14
2021-12-24 08:06:00,,0808.7,5.01,0.00,24.7,23.9,00.0,33.7,26.5,22.1,0000.0,0000.64,0000.18,0000.15
2021-12-24 08:07:00,,0808.7,5.00,0.00,24.7,23.9,00.0,33.7,26.5,22.1,0000.0,0001.86,0000.18,0000.15
2021-12-24 08:08:00,,0808.7,5.01,0.00,24.7,23.9,00.0,33.7,26.4,22.1,0000.0,0001.87,0000.19,0000.15
2021-12-24 08:09:00,,0808.7,4.99,0.00,24.7,23.9,00.0,33.7,26.4,22.2,0000.0,0001.90,0000.20,0000.15
2021-12-24 08:10:00,,0808.6,4.99,0.00,24.7,23.9,00.0,33.7,26.5,22.2,0000.0,0001.90,0000.20,0000.15
2021-12-24 08:11:00,,0808.6,5.01,0.00,24.7,23.9,00.0,33.7,26.5,22.2,0000.0,0001.90,0000.20,0000.15
2021-12-24 08:12:00,,0808.7,4.99,0.00,24.7,23.9,00.0,33.7,26.5,22.1,0000.0,0001.90,0000.19,0000.14
2021-12-24 08:13:00,,0808.7,5.01,0.00,24.7,23.9,00.0,33.7,26.5,22.0,0000.0,0001.89,0000.18,0000.14
2021-12-24 08:14:00,,0808.7,5.00,0.00,24.7,23.9,00.0,33.7,26.5,22.0,0000.0,0001.92,0000.19,0000.14
2021-12-24 08:15:00,,0808.7,4.99,0.00,24.7,23.9,00.0,33.7,26.5,22.0,0000.0,0001.94,0000.19,0000.14
2021-12-24 08:16:00,,0808.7,5.01,0.00,24.8,23.9,00.0,33.7,26.5,22.0,0000.0,0001.92,0000.19,0000.14
2021-12-24 08:17:00,,0808.7,4.99,0.00,24.8,23.9,00.0,33.7,26.5,22.0,0000.0,0001.52,0000.19,0000.14
2021-12-24 08:18:00,,0808.7,5.00,0.00,24.8,23.9,00.0,33.7,26.5,22.0,0000.0,0000.31,0000.19,0000.14
2021-12-24 08:19:00,,0808.8,5.00,0.00,24.8,23.9,00.0,33.7,26.5,22.0,0000.0,0000.30,0000.19,0000.14
2021-12-24 08:20:00,,0808.8,5.01,0.00,24.8,23.9,00.0,33.7,26.5,22.1,0000.0,0000.26,0000.17,0000.14
2021-12-24 08:21:00,,0808.8,5.00,0.00,24.8,23.9,00.0,33.7,26.5,22.3,0000.0,0000.25,0000.16,0000.13
2021-12-24 08:22:00,,0808.8,5.00,0.00,24.8,24.0,00.0,33.7,26.5,22.2,0000.0,0000.25,0000.17,0000.13
2021-12-24 08:23:00,,0808.9,4.99,0.00,24.8,23.9,00.0,33.7,26.5,22.3,0000.0,0000.23,0000.16,0000.14
2021-12-24 08:24:00,,0808.8,5.01,0.00,24.8,23.9,00.0,33.7,26.5,22.4,0000.0,0000.22,0000.16,0000.14
2021-12-24 08:25:00,,0808.9,5.00,0.00,24.8,23.9,00.0,33.7,26.5,22.3,0000.0,0000.19,0000.15,0000.13
2021-12-24 08:26:00,,0808.9,5.00,0.00,24.8,23.9,00.0,33.7,26.5,22.3,0000.0,0000.23,0000.16,0000.13
2021-12-24 08:27:00,,0809.0,4.98,0.00,24.8,23.9,00.0,33.8,26.6,22.2,0000.0,0000.26,0000.16,0000.13
2021-12-24 08:28:00,,0809.1,5.00,0.00,24.8,24.0,00.0,33.8,26.6,22.1,0000.0,0000.26,0000.16,0000.13
2021-12-24 08:29:00,,0809.1,5.01,0.00,24.8,23.9,00.0,33.8,26.5,22.1,0000.0,0000.27,0000.17,0000.13
2021-12-24 08:30:00,,0809.0,5.00,0.00,24.8,23.9,00.0,33.8,26.6,22.3,0000.0,0000.28,0000.17,0000.13
2021-12-24 08:31:00,,0808.9,4.99,0.00,24.8,23.9,00.0,33.8,26.6,22.3,0000.0,0000.30,0000.17,0000.13
2021-12-24 08:32:00,,0808.9,5.01,0.00,24.8,23.9,00.0,33.8,26.6,22.3,0000.0,0000.32,0000.18,0000.13
2021-12-24 08:33:00,,0808.8,4.98,0.00,24.8,23.9,00.0,33.8,26.6,22.3,0000.0,0000.32,0000.18,0000.13
2021-12-24 08:34:00,,0808.9,5.02,0.00,24.8,23.9,00.0,33.8,26.6,22.2,0000.0,0000.32,0000.18,0000.13
2021-12-24 08:35:00,,0808.8,4.99,0.00,24.9,24.0,00.0,33.8,26.6,22.2,0000.0,0000.32,0000.18,0000.13
2021-12-24 08:36:00,,0808.8,5.01,0.00,24.9,24.0,00.0,33.8,26.6,22.1,0000.0,0000.31,0000.18,0000.13
2021-12-24 08:37:00,,0808.8,4.98,0.00,24.9,24.0,00.0,33.8,26.6,21.9,0000.0,0000.25,0000.16,0000.13
2021-12-24 08:38:00,,0808.8,5.00,0.00,24.9,24.0,00.0,33.8,26.6,22.2,0000.0,0000.25,0000.15,0000.12
2021-12-24 08:39:00,,0808.8,5.00,0.00,24.9,24.0,00.0,33.8,26.6,22.2,0000.0,0000.25,0000.15,0000.12
2021-12-24 08:40:00,,0808.7,5.00,0.00,24.9,24.0,00.0,33.8,26.6,22.3,0000.0,0000.24,0000.14,0000.11
2021-12-24 08:41:00,,0808.8,4.99,0.00,24.9,24.0,00.0,33.8,26.6,22.3,0000.0,0000.21,0000.14,0000.11
2021-12-24 08:42:00,,0808.7,5.01,0.00,24.9,24.0,00.0,33.8,26.6,22.5,0000.0,0000.20,0000.13,0000.11
2021-12-24 08:43:00,,0808.8,4.99,0.00,24.9,24.0,00.0,33.8,26.6,22.7,0000.0,0000.18,0000.13,0000.11
2021-12-24 08:44:00,,0808.8,5.00,0.00,24.9,24.0,00.0,33.8,26.6,22.8,0000.0,0000.20,0000.13,0000.11
2021-12-24 08:45:00,,0808.8,5.00,0.00,24.9,24.0,00.0,33.8,26.6,22.8,0000.0,0000.29,0000.14,0000.11
2021-12-24 08:46:00,,0808.8,4.99,0.00,24.9,24.0,00.0,33.8,26.6,22.6,0000.0,0000.30,0000.15,0000.12
2021-12-24 08:47:00,,0808.7,5.00,0.00,24.9,24.0,00.0,33.9,26.7,22.4,0000.0,0000.29,0000.15,0000.11
2021-12-24 08:48:00,,0808.7,5.00,0.00,24.9,24.1,00.0,33.9,26.7,22.5,0000.0,0000.29,0000.14,0000.11
2021-12-24 08:49:00,,0808.7,5.00,0.00,24.9,24.1,00.0,33.9,26.6,22.6,0000.0,0000.26,0000.13,0000.11
2021-12-24 08:50:00,,0808.7,5.00,0.00,24.9,24.1,00.0,33.9,26.6,22.7,0000.0,0000.26,0000.13,0000.11
2021-12-24 08:51:00,,0808.7,5.00,0.00,24.9,24.0,00.0,33.9,26.6,22.7,0000.0,0000.27,0000.14,0000.12
2021-12-24 08:52:00,,0808.7,4.99,0.00,24.9,24.1,00.0,33.9,26.7,22.8,0000.0,0000.27,0000.14,0000.12
2021-12-24 08:53:00,,0808.7,5.01,0.00,24.9,24.1,00.0,33.9,26.6,23.0,0000.0,0000.28,0000.15,0000.12
2021-12-24 08:54:00,,0808.6,4.99,0.00,24.9,24.1,00.0,33.9,26.7,23.1,0000.0,0000.28,0000.14,0000.12
2021-12-24 08:55:00,,0808.6,5.02,0.00,24.9,24.1,00.0,33.9,26.7,23.1,0000.0,0000.25,0000.14,0000.12
2021-12-24 08:56:00,,0808.7,5.00,0.00,24.9,24.1,00.0,33.9,26.7,23.0,0000.0,0000.17,0000.13,0000.12
2021-12-24 08:57:00,,0808.7,4.99,0.00,25.0,24.1,00.0,33.9,26.7,22.8,0000.0,0000.17,0000.12,0000.11
2021-12-24 08:58:00,,0808.7,5.00,0.00,25.0,24.1,00.0,33.9,26.7,22.8,0000.0,0000.17,0000.13,0000.12
2021-12-24 08:59:00,,0808.7,5.01,0.00,25.0,24.1,00.0,33.9,26.7,23.0,0000.0,0000.18,0000.14,0000.12
